Regional Weather Roundup
Issued by NWS

Home | Current Version | Previous Version | Text Only | Print | Product List | Glossary Off
Versions: 1 2 3 4 5 6 7 8 9 10 11 12 13 14 15 16 17 18 19 20 21 22 23 24 25 26 27 28 29 30 31 32 33 34 35 36 37 38 39 40 41 42 43 44 45 46 47 48 49 50

253
ASUS44 KMEG 222110
RWRTN
TENNESSEE HOURLY STATE WEATHER ROUNDUP
NATIONAL WEATHER SERVICE MEMPHIS TN
400 PM CDT SAT JUL 22 2017

TNZ002-004-019-021-049-052-054-088>092-222200-
WEST TENNESSEE

CITY           SKY/WX    TMP DP  RH WIND       PRES   REMARKS
MEMPHIS INTL   MOSUNNY   97  76  50 W9        29.90F HX 110
JACKSON        MOSUNNY   97  72  44 W9        29.90F HX 105
SOMERVILLE       N/A     97  72  44 SW6       29.90F HX 105
COVINGTON      SUNNY     95  75  52 SW8       29.89F HX 107
UNION CITY     MOSUNNY   93  79  62 SW7       29.86F HX 110
BOLIVAR        MOSUNNY   97  72  44 NW8G15    29.89F HX 105
PARIS          SUNNY     93  77  59 SW7G13    29.88F HX 107
HUNTINGDON     SUNNY     95  77  55 S9        29.88F HX 109
LEXINGTON      SUNNY     95  73  49 S7        29.89F HX 105
SELMER         MOSUNNY   95  70  43 CALM      29.91F HX 101
SAVANNAH       SUNNY     95  72  46 CALM      29.90F HX 103
$$

TNZ008-025-027-028-033-062-065-066-222200-
NORTH MIDDLE TENNESSEE

CITY           SKY/WX    TMP DP  RH WIND       PRES   REMARKS
NASHVILLE      MOSUNNY   96  72  45 SW7       29.88F HX 104
PORTLAND       SUNNY     93  73  52 SW12      29.88F HX 102
CLARKSVILLE    SUNNY     93  74  53 SW10      29.88F HX 103
SMYRNA         SUNNY     97  72  44 W8        29.90F HX 105
COOKEVILLE     SUNNY     93  73  52 W6        29.93F HX 102
GALLATIN       SUNNY     97  70  41 SW5G12    29.90F HX 103
CROSSVILLE     MOSUNNY   88  70  55 VRB7      30.01F HX  93
$$

TNZ061-075-076-078-094-096-097-222200-
SOUTH MIDDLE TENNESSEE

CITY           SKY/WX    TMP DP  RH WIND       PRES   REMARKS
FAYETTEVILLE   MOSUNNY   91  75  59 E6        29.94F HX 102
TULLAHOMA      MOSUNNY   93  70  46 VRB3      29.96F HX  99
WINCHESTER     SUNNY     93  72  49 SW3       29.95F HX 100
MCMINNVILLE    SUNNY     93  75  55 W7        29.94F HX 104
COLUMBIA       SUNNY     95  72  46 CALM      29.90F HX 103
SHELBYVILLE    SUNNY     93  72  49 CALM      29.92F HX 100
$$

TNZ017-018-042-046-047-222200-
NORTHEAST TENNESSEE

CITY           SKY/WX    TMP DP  RH WIND       PRES   REMARKS
TRI CITIES     MOSUNNY   93  69  45 SW12      29.94F HX  98
ELIZABETHTON   MOSUNNY   93  70  46 W8        29.94F HX  99
$$

TNZ012-013-036-069-073-074-222200-
CENTRAL EAST TENNESSEE

CITY           SKY/WX    TMP DP  RH WIND       PRES   REMARKS
KNOXVILLE      MOSUNNY   96  67  38 W8        29.93F HX 100
OAK RIDGE      MOSUNNY   86  68  54 VRB5      29.96F
DOWNTOWN KNOXV PTSUNNY   93  72  49 SW8G14    29.91F HX 100
GATLINBURG     SUNNY     99  66  34 W9        29.92F HX 102
MORRISTOWN     SUNNY     93  68  43 VRB7G14   29.94F HX  97
JACKSBORO      MOSUNNY   93  72  49 VRB6G13   29.96F HX 100
$$

TNZ083-085-099-222200-
SOUTHEAST TENNESSEE

CITY           SKY/WX    TMP DP  RH WIND       PRES   REMARKS
CHATTANOOGA    MOSUNNY   96  70  42 VRB5      29.93F HX 102
DAYTON         MOCLDY    91  79  66 S6        29.92F HX 107
$$

SKY/WX REPORTED AS FAIR MEANS FEW OR NO CLOUDS BELOW
12 THOUSAND FEET.





USA.gov is the U.S. government's official web portal to all federal, state and local government web resources and services.